Tracking 31027 objects as of 19-Jul-2025
HD Live streaming from Space Station
objects crossing your sky now

STARLINK-30994

Track STARLINK-30994 now!
10-day predictions
STARLINK-30994 is classified as:


NORAD ID: 58483
Int'l Code: 2023-186L
Perigee: 494.3 km
Apogee: 496.0 km
Inclination: 43.0 °
Period: 94.4 minutes
Semi major axis: 6866 km
RCS: Unknown
Launch date: December 3, 2023
Source: United States (US)
Launch site: AIR FORCE EASTERN TEST RANGE (AFETR)
Your satellite tracking list
FENGYUN 1C DEB
Track 1 satellite(s)




NASA's NSSDC Master Catalog

Two Line Element Set (TLE):
1 58483U 23186L   25199.19551162  .00002135  00000-0  91429-4 0  9994
2 58483  43.0006 144.2693 0001276 268.6421  91.4284 15.25916718 91853
Source of the keplerian elements: AFSPC